date,time,DOY,Ta_1_1_1,Pa_1_1_1,RH_1_1_1,LWin_1_1_1,LWout_1_1_1,SWin_1_1_1,SWout_1_1_1,PPFD_1_1_1,MWS_1_1_1,WD_1_1_1,SWC_1_1_1,Ts_1_1_1
[yyyy-mm-dd],[HH:MM],[ddd.ddd],[K],[Pa],[%],[W+1m-2],[W+1m-2],[W+1m-2],[W+1m-2],[µmol+1m-2s-1],[m+1s-1],[deg],[m+3m-3],[K]
2018-09-13,00:30,256.020,295.04566666666670,95267.899999999994,68.107000000000014,425.13333333333327,365.79200000000014,1.7769999999999997,2.4023333333333321,2.6659999999999999,3.1400000000000001,109.54366666666665,0.21999999999999995,290.06900000000007
2018-09-13,01:00,256.041,294.28466666666668,95279.899999999994,70.910333333333313,419.53333333333336,362.20500000000010,0.63866666666666660,-3.9110000000000000,0.11966666666666666,3.1300000000000003,136.91133333333335,0.21999999999999995,290.03900000000004
2018-09-13,01:30,256.062,293.58666666666676,95306.033333333340,73.961999999999989,415.86899999999986,359.98766666666671,0.63366666666666671,-3.8176666666666668,1.40000000000000020E-002,2.7399999999999998,94.787999999999982,0.21999999999999995,289.98733333333331
2018-09-13,02:00,256.083,293.35099999999994,95322.866666666669,74.452999999999989,414.04666666666657,357.67766666666665,0.79333333333333322,-3.6903333333333332,3.00000000000000006E-003,1.9400000000000002,63.067000000000007,0.21999999999999995,289.92833333333323
2018-09-13,02:30,256.104,292.84099999999995,95324.100000000006,76.253666666666675,411.12233333333319,354.91900000000004,0.74466666666666681,-3.8676666666666661,1.20000000000000002E-002,2.9500000000000002,117.66633333333334,0.21999999999999995,289.85133333333334
2018-09-13,03:00,256.124,292.35666666666668,95329.899999999994,77.468333333333334,408.57866666666661,354.40666666666669,0.87866666666666637,-3.4833333333333329,1.06666666666666680E-002,1.4800000000000002,36.955666666666666,0.21999999999999995,289.77300000000008
2018-09-13,03:30,256.145,292.04100000000000,95327.399999999994,78.067666666666682,407.46299999999997,351.97900000000010,0.79666666666666652,-3.5373333333333337,2.26666666666666718E-002,0.45999999999999996,8.9109999999999996,0.21999999999999995,289.69933333333336
2018-09-13,04:00,256.166,291.68133333333338,95337.233333333337,79.456666666666678,406.00833333333333,350.10266666666666,0.67200000000000004,-3.6276666666666673,4.00000000000000078E-002,0.20333333333333331,4.7446666666666664,0.21999999999999995,289.61899999999991
2018-09-13,04:30,256.187,291.13533333333345,95347.199999999997,81.718666666666678,403.24733333333347,347.72366666666676,0.73366666666666647,-3.6636666666666673,1.00000000000000019E-002,0.10333333333333333,1.7890000000000001,0.21999999999999995,289.54466666666673
2018-09-13,05:00,256.208,290.78433333333345,95341.800000000003,82.785666666666671,401.52566666666667,345.56233333333336,1.0076666666666667,-3.4639999999999995,5.00000000000000010E-003,0.18666666666666665,3.0000000000000000,0.21999999999999995,289.46466666666669
2018-09-13,05:30,256.229,290.63400000000013,95343.166666666672,82.827333333333328,401.29499999999996,345.33400000000000,0.86566666666666647,-3.4119999999999999,7.00000000000000015E-003,0.71999999999999997,15.322333333333331,0.21999999999999995,289.39600000000002
2018-09-13,06:00,256.249,290.29800000000012,95335.333333333328,83.745000000000019,399.94433333333330,343.64266666666668,0.80999999999999994,-3.4226666666666667,1.60000000000000038E-002,1.4433333333333331,32.944666666666670,0.21999999999999995,289.32700000000006
2018-09-13,06:30,256.270,290.09233333333344,95331.333333333328,84.384666666666647,398.97400000000005,341.89166666666665,0.82999999999999985,-3.4156666666666671,2.93333333333333293E-002,1.4199999999999997,23.867333333333331,0.21999999999999995,289.26266666666663
2018-09-13,07:00,256.291,289.93566666666663,95334.699999999997,85.037000000000020,398.22399999999999,340.34199999999993,0.85666666666666658,-3.3936666666666668,3.56666666666666868E-002,0.34333333333333338,4.9223333333333334,0.21999999999999995,289.19733333333346
2018-09-13,07:30,256.312,289.68999999999988,95324.533333333340,85.425666666666658,397.23599999999999,339.58066666666656,0.79299999999999971,-3.3616666666666672,4.33333333333333348E-002,0.91333333333333333,17.899999999999999,0.21999999999999995,289.14333333333332
2018-09-13,08:00,256.333,289.44299999999998,95321.899999999994,85.511666666666684,395.76800000000014,338.63366666666667,0.71799999999999997,-3.3906666666666667,4.70000000000000140E-002,0.33333333333333331,3.6000000000000001,0.21999999999999995,289.09000000000003
2018-09-13,08:30,256.354,289.27133333333342,95325.000000000000,85.581666666666663,394.92799999999994,336.83400000000000,0.84399999999999997,-3.3880000000000003,2.53333333333333396E-002,0.29333333333333333,3.7000000000000002,0.21999999999999995,289.03766666666678
2018-09-13,09:00,256.374,289.07900000000012,95301.033333333340,85.841666666666640,393.74433333333337,332.48666666666668,0.87600000000000011,-3.5843333333333329,1.40000000000000020E-002,0.0000000000000000,0.0000000000000000,0.21999999999999995,288.98600000000005
2018-09-13,09:30,256.395,288.82333333333344,95298.100000000006,86.308000000000007,392.57833333333332,330.17266666666666,0.84566666666666668,-3.7183333333333337,1.83333333333333334E-002,0.0000000000000000,0.0000000000000000,0.21999999999999995,288.92699999999996
2018-09-13,10:00,256.416,288.52666666666676,95274.866666666669,86.521666666666661,390.77333333333331,326.77366666666671,0.91433333333333344,-3.8413333333333326,1.40000000000000003E-002,0.0000000000000000,0.0000000000000000,0.21999999999999995,288.87400000000002
2018-09-13,10:30,256.437,288.35000000000002,95297.766666666663,85.925999999999988,389.67433333333338,326.65566666666666,1.0113333333333336,-3.6700000000000004,3.00000000000000006E-003,0.0000000000000000,0.0000000000000000,0.21999999999999995,288.81833333333344
2018-09-13,11:00,256.458,288.23333333333341,95339.866666666669,85.516000000000020,388.56766666666670,328.15733333333338,0.95533333333333348,-3.7000000000000006,1.60000000000000003E-002,0.0000000000000000,0.0000000000000000,0.21999999999999995,288.76166666666666
2018-09-13,11:30,256.479,287.96866666666671,95353.866666666669,86.021999999999963,387.41333333333330,327.76033333333334,1.1580000000000004,-2.7033333333333336,1.8246666666666667,0.0000000000000000,0.0000000000000000,0.21999999999999995,288.70066666666668
2018-09-13,12:00,256.499,287.83466666666675,95374.333333333328,86.035666666666643,387.17466666666661,327.62066666666664,6.0920000000000014,17.945000000000000,34.180666666666667,0.0000000000000000,0.0000000000000000,0.21999999999999995,288.64099999999996
2018-09-13,12:30,256.520,287.87233333333330,95377.833333333328,85.376666666666694,388.77533333333332,329.19199999999995,18.325333333333337,84.856999999999985,139.79066666666668,0.0000000000000000,0.0000000000000000,0.21999999999999995,288.58033333333333
2018-09-13,13:00,256.541,288.25966666666665,95379.466666666660,83.265000000000001,392.45533333333333,331.96666666666658,30.614999999999995,166.33399999999997,281.71766666666667,0.0000000000000000,0.0000000000000000,0.21999999999999995,288.52600000000001
2018-09-13,13:30,256.562,289.03066666666672,95384.933333333334,79.448999999999998,397.81999999999999,336.23633333333339,46.360999999999990,261.13333333333333,460.82399999999996,0.0000000000000000,0.0000000000000000,0.21999999999999995,288.48266666666666
2018-09-13,14:00,256.583,289.80866666666674,95403.733333333337,76.263000000000019,403.39166666666665,341.04733333333320,59.857666666666667,353.24133333333327,628.76666666666654,0.0000000000000000,0.0000000000000000,0.21999999999999995,288.45266666666663
2018-09-13,14:30,256.604,290.92333333333335,95415.699999999997,72.599666666666678,410.94666666666666,347.79233333333326,73.308999999999997,441.52066666666673,290.34500000000003,0.19000000000000000,1.5556666666666668,0.21999999999999995,288.44366666666667
2018-09-13,15:00,256.624,292.20100000000008,95416.433333333334,68.498000000000005,418.84699999999998,354.86899999999991,84.349666666666678,520.15200000000004,904.44233333333318,0.0000000000000000,0.0000000000000000,0.21999999999999995,288.45999999999998
2018-09-13,15:30,256.645,293.28633333333335,95397.533333333340,64.859333333333339,425.89266666666674,359.92066666666676,94.021999999999977,592.50966666666659,1149.6853333333338,0.0000000000000000,0.0000000000000000,0.21999999999999995,288.50500000000011
2018-09-13,16:00,256.666,294.15833333333336,95387.133333333331,61.051999999999992,431.41566666666671,364.41133333333323,102.72699999999999,654.16300000000001,1281.9793333333332,0.0000000000000000,0.0000000000000000,0.21999999999999995,288.58100000000007
2018-09-13,16:30,256.687,294.91200000000003,95371.199999999997,56.524333333333317,435.32200000000000,367.79966666666672,108.83266666666670,705.34700000000009,1364.9250000000000,0.0000000000000000,0.0000000000000000,0.21999999999999995,288.68833333333333
2018-09-13,17:00,256.708,295.54200000000009,95347.899999999994,53.330666666666666,439.33466666666681,370.63566666666668,112.78000000000000,735.46399999999983,1477.2523333333331,0.0000000000000000,0.0000000000000000,0.21999999999999995,288.81266666666670
2018-09-13,17:30,256.729,295.93300000000016,95320.100000000006,49.439333333333337,441.38533333333339,370.84799999999990,116.75066666666666,768.43233333333330,1541.3546666666666,8.00000000000000017E-002,3.3890000000000002,0.21999999999999995,288.93833333333333
2018-09-13,18:00,256.749,296.24633333333338,95302.266666666663,47.183999999999997,443.57400000000018,371.65099999999995,119.39799999999998,778.79033333333325,1553.4173333333335,0.28000000000000003,1.9333333333333333,0.21999999999999995,289.08333333333337
2018-09-13,18:30,256.770,296.49300000000005,95263.433333333334,44.146333333333331,444.89799999999997,371.15899999999993,119.59199999999997,775.88000000000000,1572.6806666666669,0.29999999999999999,3.6776666666666666,0.21433333333333335,289.21233333333333
2018-09-13,19:00,256.791,296.89766666666668,95242.566666666666,43.192666666666675,447.47900000000010,373.71600000000001,117.62799999999999,753.42399999999986,1539.0670000000002,0.96666666666666679,13.510999999999999,0.20999999999999999,289.31766666666670
2018-09-13,19:30,256.812,297.19666666666666,95195.500000000000,43.024999999999999,448.99700000000001,374.81066666666669,113.43966666666668,720.15099999999995,1480.1640000000002,0.84999999999999998,8.9113333333333333,0.20999999999999999,289.42600000000004
2018-09-13,20:00,256.833,297.25666666666677,95141.433333333334,40.801000000000002,448.19133333333332,372.20933333333329,108.18700000000004,678.92200000000014,1395.8563333333336,0.72666666666666657,7.3446666666666678,0.20999999999999999,289.51933333333341
2018-09-13,20:30,256.854,297.48033333333331,95092.866666666669,40.531666666666659,449.22366666666665,371.66333333333330,103.01000000000002,622.01500000000010,1284.0050000000001,1.8266666666666667,20.144666666666662,0.20999999999999999,289.61500000000007
2018-09-13,21:00,256.874,297.63133333333337,95076.933333333334,39.375666666666667,449.29733333333337,370.76533333333339,95.489333333333335,554.19666666666660,1148.0009999999997,1.0799999999999998,10.977666666666666,0.20999999999999999,289.70933333333329
2018-09-13,21:30,256.895,297.64099999999996,95080.866666666669,40.177000000000000,448.56533333333334,371.03199999999998,85.418666666666695,475.16900000000004,990.43366666666657,3.6699999999999999,57.310666666666663,0.20999999999999999,289.77733333333339
2018-09-13,22:00,256.916,297.50666666666677,95073.733333333337,40.211666666666666,446.58766666666662,368.53033333333332,74.882666666666665,390.05700000000002,808.59566666666660,2.8000000000000003,33.511000000000003,0.20999999999999999,289.82333333333338
2018-09-13,22:30,256.937,297.30433333333343,95082.166666666672,41.794333333333320,444.43633333333332,367.46699999999993,62.066000000000017,298.13400000000001,626.56566666666674,2.0066666666666668,31.366999999999997,0.20999999999999999,289.85066666666677
2018-09-13,23:00,256.958,296.95100000000002,95068.133333333331,43.592999999999996,440.79899999999992,364.42666666666656,47.833000000000006,205.45833333333334,418.55066666666670,3.2166666666666668,53.921999999999997,0.20999999999999999,289.86966666666666
2018-09-13,23:30,256.979,296.28566666666677,95052.866666666669,46.497666666666667,435.53566666666671,359.74233333333331,32.672999999999995,117.32333333333334,211.79999999999998,4.4566666666666661,100.50000000000000,0.20999999999999999,289.87700000000007
2018-09-14,00:00,257.000,295.42033333333336,95077.966666666660,49.998666666666686,428.25799999999998,357.24066666666664,16.356000000000002,43.384333333333316,77.301000000000016,3.0033333333333330,71.477666666666664,0.20999999999999999,289.86433333333326
